Location: Unspecified
(0.0000°N, 0.0000°E)
Time: 04:23:29
(UTC+00:00)

Hubble Space Telescope - Pass Details

Date: 27 November 2020
Orbit: 536 x 540 km, 28.5° (Epoch: 03 December)

Event Time Altitude Azimuth Distance (km) Brightness Sun altitude
Exits shadow 03:49:38 20° 50° (NE) 1,266 2.9 -27.3°
Drops below altitude 10° 03:51:52 10° 81° (E) 1,781 4.1 -26.8°
Sets 03:54:31 0° 96° (E) 2,674 5.5 -26.2°
